Notices

What's New in latest Release from April 7th, 2021:

- Updated Glossary, including Speed of Maximum Gust, and Total Hourly Precipitation

- Updated national and regional climate services offices contacts and prices information

- Addition of station inventory lists for 1981-2010, 1971-2000, and 1961-1990 Normals.

If you haven't already, please take our survey and provide feedback about our website: https://eccc.sondage-survey.ca/f/LanguageSelection.aspx?s=442ca660-fcf1-47c0-95a9-59707d6fd709

Hourly Data Report for November 16, 2020

SHEARWATER RCS
NOVA SCOTIA
Current Station Operator: ECCC - MSC

44°37'47.000" N
63°30'48.000" W
24.00 m
8205092
71264
AAW

Download Data

Hourly Data (November 2020)
Hourly Data Report for November 16, 2020
TIME
LST
Temp Definition
°C
Dew Point Definition
°C
Rel Hum Definition
%
Precip. Amount Definition
mm

Wind Dir Definition
10's deg

Wind Spd Definition
km/h
Visibility Definition
km
Stn Press Definition
kPa
Hmdx Definition


Wind Chill Definition


Weather Definition


00:00 5.4 -1.0 64 0.0 15 23   101.72     LegendNANA
01:00 5.8 -0.5 64 0.0 15 25   101.62     LegendNANA
02:00 6.3 1.2 70 0.0 15 26   101.54     LegendNANA
03:00 7.1 3.0 75 0.0 15 30   101.37     LegendNANA
04:00 8.1 4.4 78 0.0 15 30   101.18     LegendNANA
05:00 9.0 5.6 79 0.0 14 27   101.05     LegendNANA
06:00 10.2 6.7 79 0.0 15 29   100.92     LegendNANA
07:00 10.3 7.7 84 0.0 14 30   100.65     LegendNANA
08:00 10.6 9.0 90 1.1 14 32   100.50     LegendNANA
09:00 11.4 10.6 95 4.3 15 38   100.24     LegendNANA
10:00 12.1 11.7 98 5.2 16 41   100.12     LegendNANA
11:00 10.9 10.4 96 3.9 23 12   100.09     LegendNANA
12:00 10.5 10.0 96 2.9 21 15   100.03     LegendNANA
13:00 10.0 8.2 89 0.0 24 22   100.00     LegendNANA
14:00 10.5 8.0 84 0.0 24 19   99.99     LegendNANA
15:00 9.7 7.0 83 0.0 25 19   100.04     LegendNANA
16:00 10.3 6.6 78 0.0 25 10   100.05     LegendNANA
17:00 8.8 3.2 68 0.0 25 13   100.09     LegendNANA
18:00 7.3 3.5 77 0.0 25 9   100.16     LegendNANA
19:00 7.1 2.3 71 0.0 24 10   100.22     LegendNANA
20:00 6.9 2.8 75 0.0 24 11   100.30     LegendNANA
21:00 6.8 3.0 77 0.0 25 11   100.34     LegendNANA
22:00 6.0 3.2 82 0.0 23 12   100.40     LegendNANA
23:00 5.9 3.2 83 0.0 24 11   100.41     LegendNANA

Notes on Data Quality.

Legend

  • E = Estimated
  • M = Missing
  • NA = Not Available*
  • [empty] = Indicates an unobserved value
Date modified: